Flag for Seychelles Weather past 2 weeks in Victoria, Seychelles

Now
81 °F

Scattered clouds.


Feels Like: 85 °F
Forecast: 74 / 79 °F
Wind: 9 mph from Southeast

Location: National Airport

Current Time: Jul 30, 2015 at 9:05:10 AM

Latest Report: Jul 30, 2015 at 8:00 AM


Visibility: N/A

Pressure: 29.92 "Hg

Humidity: 79%

Dew point: 73 °F

Location of VictoriaLocation

Historic Weather in Victoria — Graph

°F

Victoria temperature yesterday

Maximum temperature yesterday: 86 °F (at 1:00 PM)
Minimum temperature yesterday: 79 °F (at 12:00 AM)
Average temperature yesterday: 81 °F

Past Weeks' High & Low Weather Summary

 TemperatureHumidityPressure
High86 °F (Jul 17, 1:00 PM)94% (Jul 15, 6:00 PM)29.95 "Hg (Jul 15, 6:00 PM)
Low77 °F (Jul 20, 4:00 AM)62% (Jul 17, 1:00 PM)29.83 "Hg (Jul 15, 4:00 PM)
Average80 °F79%29.89 "Hg
* Reported Jul 15 8:00 AM — Jul 30 8:00 AM, Victoria, Weather by CustomWeather, © 2015

Note: Actual official high and low records may vary slightly from our data, if they occured in-between our weather recording intervals... More about our weather records

Advertising

Victoria weather history for previous 24 hours

 ConditionsComfort  
Time TempWeatherWind HumidityBarometerVisibility
8:00 AM
Thu, Jul 30
81 °FScattered clouds.9 mph79%29.92 "HgN/A
7:00 AM79 °FScattered clouds.9 mph89%29.89 "HgN/A
6:00 AM79 °FPassing clouds.8 mph84%29.89 "HgN/A
5:00 AM79 °FPassing clouds.9 mph84%29.89 "HgN/A
4:00 AM79 °FPassing clouds.12 mph84%29.86 "HgN/A
3:00 AM79 °FPassing clouds.10 mph89%29.89 "HgN/A
2:00 AM79 °FPassing clouds.9 mph84%29.89 "HgN/A
1:00 AM79 °FPassing clouds.8 mph89%29.92 "HgN/A
12:00 AM79 °FPassing clouds.10 mph89%29.92 "HgN/A
11:00 PM
Wed, Jul 29
79 °FPassing clouds.10 mph89%29.92 "HgN/A
10:00 PM79 °FPassing clouds.8 mph89%29.92 "HgN/A
9:00 PM79 °FPassing clouds.6 mph84%29.92 "HgN/A
8:00 PM79 °FPassing clouds.5 mph84%29.89 "HgN/A
7:00 PM81 °FPassing clouds.9 mph84%29.89 "HgN/A
6:00 PM81 °FPassing clouds.12 mph79%29.86 "HgN/A
5:00 PM82 °FPassing clouds.9 mph74%29.86 "HgN/A
4:00 PM84 °FScattered clouds.12 mph74%29.86 "HgN/A
3:00 PM84 °FScattered clouds.10 mph74%29.86 "HgN/A
2:00 PM86 °FScattered clouds.8 mph70%29.86 "HgN/A
1:00 PM86 °FScattered clouds.9 mph70%29.89 "HgN/A
12:00 PM84 °FScattered clouds.9 mph74%29.92 "HgN/A
11:00 AM82 °FPassing clouds.10 mph74%29.92 "HgN/A
10:00 AM84 °FScattered clouds.10 mph74%29.95 "HgN/A
9:00 AM82 °FScattered clouds.12 mph79%29.95 "HgN/A
Weather by CustomWeather, © 2015

See weather overviewHow to use our weather pages